Location: Boitzum
(52.1496°N, 9.6943°E)
Time: 01:02:17
(UTC+00:00)

NOSS 8 (F) - Pass Details

Date: 13 January 2026
Orbit: 363 x 1535 km, 63.3° (Epoch: 18 February)

Event Time Altitude Azimuth Distance (km) Brightness Sun altitude
Exits shadow 05:58:28 22° 313° (NW) 883 5.3 -12.6°
Maximum altitude 06:00:14 85° 226° (SW) 393 4.0 -12.3°
Drops below altitude 10° 06:03:30 10° 137° (SE) 1,531 8.2 -11.9°
Sets 06:05:46 0° 137° (SE) 2,521 9.4 -11.5°
